This is the latest recevied weather packets stored in our database for station/object EA3GKP-10. If no packets are shown the sender has not sent any weather packets the latest 10 day(s).
| Time | Temp. | Humidity | Pressure | Rain* | Wind** | Luminosity | Snow |
|---|---|---|---|---|---|---|---|
| 1777888003 | 20.56° C | - | - | 0 mm | 1.79 m/s, 128° | - | - |
| 1777887701 | 20.56° C | - | - | 0 mm | 2.68 m/s, 166° | - | - |
| 1777887397 | 20.56° C | - | - | 0 mm | 2.24 m/s, 76° | - | - |
| 1777887092 | 21.11° C | - | - | 0 mm | 1.79 m/s, 62° | - | - |
| 1777886789 | 21.11° C | - | - | 0 mm | 0 m/s | - | - |
| 1777886482 | 20° C | - | - | 0 mm | 0 m/s | - | - |
| 1777886176 | 20.56° C | - | - | 0 mm | 0 m/s | - | - |
| 1777885873 | 20° C | - | - | 0 mm | 1.79 m/s, 359° | - | - |
| 1777885569 | 20.56° C | - | - | 0 mm | 0.45 m/s, 359° | - | - |
| 1777885266 | 20° C | - | - | 0 mm | 2.68 m/s, 86° | - | - |
| 1777884962 | 20° C | - | - | 0 mm | 1.79 m/s, 117° | - | - |
| 1777884660 | 20° C | - | - | 0 mm | 2.24 m/s, 87° | - | - |
| 1777884357 | 20° C | - | - | 0 mm | 2.24 m/s, 134° | - | - |
| 1777884054 | 20° C | - | - | 0 mm | 2.24 m/s, 72° | - | - |
| 1777883751 | 20° C | - | - | 0 mm | 1.34 m/s, 31° | - | - |
| 1777883443 | 20° C | - | - | 0 mm | 1.79 m/s, 152° | - | - |
| 1777883139 | 20.56° C | - | - | 0 mm | 0.89 m/s, 72° | - | - |
| 1777882836 | 20° C | - | - | 0 mm | 0.45 m/s, 127° | - | - |
| 1777882533 | 20° C | - | - | 0 mm | 1.34 m/s, 89° | - | - |
| 1777882230 | 21.11° C | - | - | 0 mm | 0 m/s | - | - |
| 1777881924 | 20.56° C | - | - | 0 mm | 0.45 m/s, 53° | - | - |
| 1777881620 | 21.11° C | - | - | 0 mm | 0 m/s | - | - |
| 1777881315 | 20° C | - | - | 0 mm | 0.45 m/s, 73° | - | - |
| 1777881007 | 20° C | - | - | 0 mm | 0 m/s | - | - |
| 1777880704 | 19.44° C | - | - | 0 mm | 0 m/s | - | - |
* Rain latest hour (hover to see other rain measurements)
** Current wind speed in m/s (hover to see current wind gust speed)